Precipitable_Water
0.42 0.30 0.22 0.19 0.27 0.32 0.33 0.35 0.36 0.42 0.53 0.55 0.56 0.54 0.56 0.73 0.82 0.85 0.87 0.88 0.89 0.89 1.01 1.06 1.10 1.16 1.21 1.22 1.21 1.27 1.32 1.36 1.39 1.35 1.30 1.31 1.33 1.39 1.36 1.24 1.19 1.10 1.00 0.94
0.30 0.20 0.26 0.31 0.35 0.37 0.39 0.37 0.36 0.47 0.54 0.54 0.56 0.52 0.60 0.74 0.82 0.86 0.90 0.90 0.91 0.94 0.98 1.02 1.06 1.11 1.15 1.17 1.20 1.23 1.29 1.34 1.38 1.37 1.34 1.37 1.37 1.39 1.37 1.25 1.19 1.16 1.08 1.01
0.22 0.25 0.38 0.38 0.39 0.37 0.38 0.37 0.39 0.41 0.53 0.57 0.55 0.47 0.53 0.75 0.92 0.94 0.97 0.98 0.93 0.87 0.89 0.96 0.99 1.03 1.11 1.12 1.18 1.18 1.22 1.29 1.40 1.40 1.39 1.40 1.38 1.35 1.29 1.18 1.13 1.13 1.08 1.00
0.35 0.45 0.45 0.43 0.41 0.46 0.36 0.50 0.47 0.45 0.43 0.36 0.53 0.34 0.50 0.65 0.74 0.83 0.89 0.96 0.92 0.88 0.93 0.94 0.94 0.97 1.02 1.09 1.23 1.24 1.23 1.27 1.40 1.44 1.41 1.35 1.24 1.15 1.12 1.12 1.13 1.13 1.11 1.02
0.31 0.39 0.42 0.41 0.46 0.52 0.46 0.58 0.48 0.48 0.43 0.44 0.44 0.40 0.45 0.64 0.57 0.73 0.82 0.90 0.91 0.92 0.93 0.90 0.91 0.96 1.06 1.14 1.18 1.26 1.28 1.33 1.37 1.41 1.46 1.40 1.33 1.34 1.28 1.18 1.14 1.14 1.11 1.05
0.37 0.51 0.51 0.46 0.49 0.53 0.58 0.51 0.50 0.49 0.43 0.31 0.41 0.40 0.40 0.49 0.61 0.70 0.83 0.88 0.91 0.92 0.90 0.95 1.00 1.03 1.07 1.16 1.19 1.22 1.26 1.27 1.34 1.40 1.47 1.42 1.39 1.34 1.31 1.18 1.11 1.12 1.10 1.05
0.33 0.39 0.50 0.53 0.43 0.49 0.48 0.40 0.28 0.27 0.28 0.28 0.42 0.38 0.38 0.50 0.61 0.67 0.70 0.76 0.87 0.93 0.90 0.92 0.95 0.98 1.01 1.06 1.09 1.15 1.20 1.17 1.28 1.36 1.47 1.51 1.38 1.40 1.37 1.26 1.15 1.10 1.05 1.02
0.21 0.17 0.34 0.46 0.42 0.38 0.40 0.40 0.28 0.20 0.21 0.27 0.42 0.27 0.31 0.47 0.56 0.69 0.76 0.82 0.88 0.86 0.87 0.90 0.94 0.98 1.01 1.04 1.07 1.07 1.10 1.14 1.24 1.33 1.41 1.50 1.46 1.40 1.41 1.30 1.19 1.14 1.09 1.06
0.21 0.20 0.40 0.43 0.46 0.46 0.41 0.35 0.44 0.31 0.34 0.27 0.31 0.35 0.40 0.46 0.47 0.57 0.67 0.74 0.76 0.83 0.83 0.85 0.92 0.98 1.01 1.04 1.06 1.04 1.07 1.17 1.23 1.32 1.43 1.45 1.39 1.36 1.31 1.24 1.24 1.21 1.18 1.14
0.29 0.22 0.38 0.39 0.43 0.44 0.45 0.46 0.30 0.31 0.21 0.18 0.24 0.26 0.27 0.35 0.39 0.47 0.55 0.60 0.69 0.77 0.80 0.82 0.88 0.92 0.99 1.07 1.10 1.09 1.06 1.11 1.20 1.30 1.35 1.35 1.30 1.29 1.26 1.26 1.21 1.21 1.19 1.19
0.36 0.31 0.30 0.37 0.34 0.31 0.36 0.37 0.38 0.34 0.30 0.21 0.19 0.22 0.35 0.36 0.42 0.46 0.52 0.58 0.63 0.71 0.78 0.80 0.85 0.92 0.96 1.07 1.10 1.08 1.02 1.07 1.17 1.24 1.29 1.29 1.28 1.32 1.33 1.28 1.16 1.16 1.17 1.17
0.40 0.34 0.26 0.29 0.38 0.41 0.36 0.32 0.33 0.27 0.23 0.27 0.25 0.23 0.34 0.35 0.38 0.44 0.53 0.58 0.66 0.71 0.74 0.79 0.84 0.88 0.91 0.97 1.05 1.11 1.09 1.04 1.16 1.21 1.25 1.23 1.24 1.30 1.31 1.27 1.19 1.24 1.20 1.24
0.41 0.32 0.23 0.25 0.32 0.35 0.32 0.35 0.35 0.32 0.30 0.25 0.22 0.22 0.33 0.32 0.34 0.41 0.46 0.54 0.59 0.64 0.71 0.76 0.81 0.83 0.87 0.94 1.00 1.08 1.13 1.11 1.11 1.19 1.19 1.19 1.19 1.20 1.20 1.22 1.22 1.23 1.23 1.23
0.44 0.34 0.27 0.20 0.25 0.31 0.27 0.28 0.32 0.32 0.23 0.22 0.23 0.24 0.27 0.29 0.29 0.30 0.40 0.48 0.52 0.56 0.62 0.72 0.79 0.84 0.90 0.94 1.00 1.06 1.12 1.17 1.15 1.15 1.16 1.15 1.16 1.16 1.16 1.18 1.22 1.25 1.25 1.22
0.41 0.28 0.30 0.31 0.32 0.32 0.30 0.29 0.30 0.29 0.29 0.23 0.23 0.25 0.30 0.32 0.33 0.33 0.34 0.40 0.44 0.49 0.57 0.64 0.71 0.75 0.84 0.90 0.94 1.04 1.10 1.14 1.16 1.13 1.11 1.12 1.18 1.17 1.18 1.15 1.13 1.15 1.20 1.20
0.41 0.30 0.33 0.27 0.32 0.32 0.27 0.31 0.32 0.30 0.30 0.28 0.29 0.26 0.34 0.36 0.37 0.37 0.38 0.39 0.39 0.42 0.49 0.58 0.65 0.70 0.76 0.82 0.90 0.96 1.03 1.10 1.14 1.12 1.09 1.12 1.14 1.15 1.14 1.14 1.13 1.13 1.15 1.17
0.38 0.32 0.29 0.23 0.30 0.31 0.25 0.27 0.29 0.29 0.29 0.30 0.26 0.27 0.37 0.36 0.37 0.40 0.42 0.42 0.40 0.40 0.43 0.48 0.57 0.67 0.75 0.82 0.89 0.90 0.97 1.05 1.07 1.07 1.08 1.09 1.11 1.10 1.09 1.10 1.11 1.10 1.11 1.14
0.36 0.35 0.35 0.28 0.31 0.19 0.29 0.36 0.35 0.32 0.32 0.34 0.33 0.34 0.35 0.36 0.39 0.40 0.42 0.41 0.40 0.41 0.44 0.47 0.53 0.64 0.75 0.84 0.89 0.94 0.97 0.98 0.98 0.99 1.00 1.02 1.04 1.05 1.07 1.08 1.06 1.05 1.05 1.05
0.42 0.36 0.30 0.27 0.27 0.31 0.34 0.39 0.37 0.34 0.31 0.38 0.36 0.36 0.38 0.39 0.37 0.36 0.39 0.40 0.40 0.42 0.45 0.49 0.54 0.60 0.71 0.82 0.87 0.88 0.89 0.91 0.92 0.93 0.95 0.97 1.00 1.03 1.04 1.04 1.04 1.03 1.00 0.97
0.40 0.39 0.32 0.29 0.25 0.22 0.31 0.39 0.44 0.44 0.30 0.41 0.41 0.38 0.37 0.37 0.29 0.31 0.38 0.40 0.40 0.43 0.45 0.49 0.54 0.59 0.64 0.73 0.83 0.83 0.82 0.85 0.86 0.90 0.91 0.94 0.96 0.97 0.97 0.98 0.97 0.95 0.94 0.93
0.30 0.30 0.27 0.27 0.25 0.28 0.36 0.42 0.47 0.31 0.32 0.41 0.41 0.41 0.40 0.36 0.35 0.38 0.39 0.39 0.41 0.42 0.44 0.48 0.52 0.56 0.61 0.66 0.70 0.71 0.75 0.77 0.81 0.84 0.85 0.85 0.85 0.85 0.84 0.84 0.84 0.83 0.82 0.82
0.27 0.25 0.25 0.27 0.24 0.22 0.38 0.39 0.32 0.39 0.42 0.39 0.39 0.40 0.39 0.37 0.37 0.37 0.37 0.38 0.39 0.40 0.43 0.46 0.48 0.52 0.57 0.61 0.63 0.62 0.63 0.65 0.66 0.66 0.65 0.64 0.64 0.65 0.66 0.66 0.66 0.66 0.65 0.64
0.26 0.29 0.26 0.26 0.24 0.31 0.36 0.38 0.44 0.45 0.41 0.38 0.37 0.38 0.38 0.38 0.36 0.35 0.35 0.36 0.38 0.39 0.41 0.44 0.46 0.48 0.50 0.53 0.53 0.51 0.52 0.53 0.53 0.53 0.52 0.52 0.53 0.53 0.53 0.52 0.52 0.52 0.53 0.52
0.30 0.33 0.28 0.29 0.30 0.31 0.33 0.36 0.38 0.37 0.37 0.38 0.39 0.39 0.37 0.37 0.39 0.37 0.36 0.35 0.35 0.35 0.39 0.43 0.45 0.46 0.46 0.48 0.49 0.49 0.50 0.49 0.48 0.47 0.47 0.48 0.48 0.48 0.49 0.49 0.49 0.48 0.46 0.45
0.29 0.31 0.31 0.31 0.33 0.34 0.35 0.36 0.37 0.39 0.42 0.40 0.37 0.36 0.35 0.35 0.35 0.37 0.36 0.36 0.35 0.35 0.35 0.35 0.34 0.38 0.44 0.48 0.49 0.50 0.50 0.50 0.48 0.48 0.47 0.47 0.47 0.46 0.45 0.45 0.44 0.43 0.44 0.43
0.31 0.29 0.28 0.27 0.34 0.35 0.37 0.40 0.42 0.40 0.40 0.39 0.38 0.38 0.38 0.36 0.34 0.36 0.36 0.37 0.36 0.36 0.37 0.37 0.38 0.33 0.30 0.31 0.33 0.38 0.43 0.46 0.46 0.46 0.47 0.47 0.46 0.46 0.45 0.45 0.45 0.47 0.47 0.46
Wind_Speed
5 7 12 17 19 19 17 16 19 29 28 17 27 25 32 39 40 41 40 39 37 35 32 31 29 28 27 27 27 26 25 26 25 25 24 24 23 23 21 20 19 19 18 18
7 8 11 15 18 15 17 16 20 24 30 19 20 25 30 38 37 41 42 40 37 35 33 32 30 29 28 27 26 26 26 26 26 25 25 24 23 23 22 22 21 20 19 18
13 12 14 13 8 13 14 20 24 22 23 20 20 24 31 33 33 36 39 39 37 37 34 32 31 29 29 28 27 27 27 27 27 26 25 24 23 22 22 22 22 21 20 19
13 6 6 8 6 8 8 16 30 24 19 17 22 21 28 33 33 34 37 38 38 36 34 33 32 30 29 29 28 27 27 27 27 27 27 26 25 23 23 23 23 22 21 20
7 6 5 7 7 11 4 13 22 18 16 16 20 15 27 32 33 35 35 38 37 36 34 33 32 31 29 29 29 28 27 27 27 28 28 27 26 24 23 24 24 23 22 22
4 4 5 5 5 9 11 12 15 15 15 14 16 16 22 33 35 33 31 33 35 35 35 33 32 31 30 29 29 29 28 28 29 29 29 29 28 27 26 25 25 25 24 23
4 3 5 5 9 6 5 7 10 12 12 14 19 15 21 28 33 32 32 32 32 32 34 34 33 32 31 29 28 29 29 29 30 31 31 30 25 29 28 29 27 27 25 24
4 1 4 5 6 4 8 5 9 14 16 14 15 16 18 23 32 32 31 29 30 31 31 33 33 32 31 30 29 29 29 29 30 31 32 31 27 27 28 29 29 28 27 26
5 5 4 8 8 5 5 6 7 10 12 12 17 16 15 21 24 33 31 32 33 33 31 31 32 33 32 31 31 29 29 30 30 31 31 30 28 27 27 26 28 30 28 27
6 5 7 10 10 9 7 4 6 8 10 12 13 14 15 19 22 30 32 31 30 31 32 33 32 33 32 32 31 30 30 30 30 31 31 30 29 27 26 26 26 27 28 28
7 7 5 10 13 12 9 7 6 9 8 10 12 14 13 18 19 27 32 30 29 30 31 32 32 33 33 34 32 31 30 29 30 30 31 30 30 30 29 29 28 28 29 28
8 8 10 13 11 13 15 13 12 8 9 8 11 12 10 14 18 21 28 28 28 28 29 30 31 32 33 34 33 32 30 29 29 29 30 30 30 31 31 31 30 30 30 30
9 11 10 9 10 13 14 16 15 13 11 12 11 12 9 8 12 20 24 28 30 30 29 31 33 33 33 34 35 34 33 31 31 31 31 31 31 30 31 31 31 31 30 30
14 15 15 14 12 11 14 17 19 20 17 17 18 14 13 10 7 10 19 25 29 31 32 31 32 34 34 34 34 36 35 34 33 32 33 33 32 31 32 32 32 32 32 32
16 18 18 20 19 17 17 17 18 24 23 22 19 25 25 18 16 14 12 18 23 27 31 32 35 34 35 35 34 35 35 35 35 34 33 33 33 33 33 33 33 33 33 33
20 20 18 21 23 24 24 23 22 25 23 28 24 27 25 23 22 22 21 19 21 24 28 31 35 34 35 37 38 37 37 37 36 35 34 34 34 34 34 34 33 33 33 33
21 20 20 21 19 20 24 27 28 25 23 24 27 27 24 27 28 28 28 27 27 26 26 30 34 34 34 35 37 38 38 38 38 37 36 36 35 35 34 34 34 35 35 34
22 22 22 21 19 22 21 21 23 28 29 28 28 24 25 26 27 29 29 29 30 30 29 28 30 34 35 34 34 36 37 38 39 39 38 37 37 37 36 35 35 35 35 35
22 21 21 21 22 24 23 19 21 23 23 23 26 25 27 28 28 29 28 29 30 30 32 31 30 29 34 35 35 34 35 35 36 37 37 38 38 37 37 37 36 36 36 36
18 21 21 19 21 22 19 18 21 20 21 20 21 21 22 23 25 24 25 26 29 31 30 31 32 31 30 33 35 35 36 36 36 36 36 36 37 38 38 38 38 37 37 36
12 14 20 21 22 23 22 19 17 16 18 17 19 20 20 21 23 24 25 25 25 26 29 30 32 32 32 32 32 33 35 36 36 36 36 36 37 37 37 38 38 38 38 38
15 14 14 15 18 21 17 18 22 21 19 19 19 19 19 19 20 20 21 21 23 25 25 27 29 32 33 33 33 33 33 34 34 35 36 36 36 36 37 37 37 37 37 37
17 17 16 17 15 16 14 14 15 18 20 21 21 21 20 21 22 21 21 21 21 21 24 26 26 28 29 32 33 34 35 34 34 35 35 35 36 36 36 36 36 36 36 36
20 19 20 18 20 22 24 20 19 20 21 21 22 22 22 22 22 22 21 21 21 21 21 23 24 26 28 30 31 33 35 35 36 36 36 37 36 36 36 36 36 36 36 36
20 20 21 23 24 24 26 26 24 22 22 22 21 21 22 23 23 22 22 22 22 22 22 23 23 24 26 28 30 31 33 34 34 35 35 36 36 36 36 36 36 36 36 36
21 22 23 23 22 22 22 21 22 21 22 21 21 21 21 23 23 22 24 24 24 24 24 24 25 25 25 25 26 28 29 30 31 32 33 34 34 34 35 35 34 34 34 34
Wind_Direction
171 176 184 185 189 192 196 213 215 197 193 216 187 192 197 199 195 192 193 193 193 194 195 195 195 197 199 200 201 203 204 205 206 206 208 210 212 213 213 212 212 213 213 214
120 154 167 168 175 197 210 220 209 195 190 196 197 196 196 197 196 194 193 193 194 195 196 196 198 201 202 202 204 205 208 207 208 209 211 213 213 213 216 215 216 216 217 218
113 120 129 156 187 218 218 218 207 189 185 199 194 192 192 192 193 195 198 195 196 196 197 198 200 203 204 206 207 208 210 210 211 213 212 213 212 215 217 217 217 218 219 221
117 81 122 153 200 179 186 223 180 175 184 182 181 190 192 197 194 196 201 199 198 200 203 204 205 206 207 209 210 211 213 214 215 215 213 213 214 217 219 219 221 222 222 223
99 65 88 126 110 157 116 141 168 174 177 177 184 196 198 197 201 203 204 201 200 203 205 206 207 208 210 211 213 215 216 217 217 216 216 217 218 222 222 223 223 223 224 226
127 92 116 134 102 153 156 135 157 179 186 195 185 195 208 201 196 199 199 198 202 206 208 208 209 209 211 214 216 217 218 219 219 219 219 221 222 224 223 225 224 224 227 229
118 121 132 129 118 149 153 167 182 192 195 199 197 214 216 207 208 206 202 203 205 207 208 209 209 211 213 216 217 219 220 221 222 222 222 222 232 222 228 229 228 225 228 229
156 190 178 185 168 172 158 159 192 191 197 202 202 217 216 214 211 209 208 209 208 210 210 211 212 213 215 218 220 221 223 223 223 224 225 227 229 232 231 231 227 228 229 233
195 227 212 194 183 171 190 191 196 184 193 202 212 225 235 216 214 207 206 207 210 212 212 212 213 217 218 221 222 224 225 225 226 226 226 227 230 230 227 225 226 230 233 236
225 249 217 205 198 210 197 218 209 197 196 222 217 223 226 217 215 210 210 209 211 214 216 217 218 219 221 222 224 225 226 227 228 227 227 226 227 227 226 229 230 232 236 240
233 216 216 192 205 200 199 210 204 204 210 218 214 225 223 222 225 216 214 216 218 217 219 221 223 224 224 224 224 226 226 227 227 227 227 228 229 231 234 235 237 238 240 242
225 221 216 215 214 211 213 216 209 201 218 220 218 232 233 227 223 217 217 218 218 221 223 223 224 225 225 225 225 225 226 228 227 227 227 229 232 234 236 237 240 242 244 246
227 227 230 238 232 228 226 224 221 223 224 221 214 222 215 225 228 224 221 222 226 227 229 229 227 226 226 227 227 227 228 229 228 228 230 232 234 236 237 239 241 243 245 247
237 233 228 225 226 227 229 234 229 222 227 224 224 226 226 229 231 232 229 229 231 232 233 232 227 228 229 229 228 228 228 229 230 232 234 235 236 238 240 242 244 246 247 249
242 240 240 241 242 242 239 238 229 227 231 229 227 229 238 238 243 235 232 232 234 236 235 231 232 232 231 229 230 230 230 231 232 233 235 237 238 241 242 244 246 247 250 251
249 248 249 245 245 244 244 239 238 238 239 241 240 244 239 240 243 246 244 240 241 240 236 234 234 233 231 231 232 232 232 233 234 234 236 238 239 241 243 245 247 249 250 252
247 248 246 248 250 253 251 239 240 242 240 239 238 246 242 244 244 246 247 246 246 245 240 237 234 233 233 232 231 231 232 233 234 235 237 239 240 242 244 247 249 249 253 253
249 247 247 250 250 247 251 252 249 245 247 243 249 247 245 246 248 249 248 247 247 245 243 240 237 234 233 233 231 231 232 234 235 237 239 241 242 244 246 248 249 251 252 253
247 246 249 248 248 260 260 254 248 246 252 248 248 249 250 252 251 250 252 252 249 248 243 240 238 235 233 232 231 231 232 233 235 237 239 241 242 244 246 248 250 252 253 253
247 247 244 248 248 246 252 251 249 250 252 249 250 251 252 252 248 248 253 253 250 247 245 240 237 236 234 233 232 233 235 236 238 239 240 242 244 245 248 249 251 253 253 254
251 247 242 245 250 257 251 249 251 243 248 251 252 253 254 251 251 254 255 253 252 250 245 240 237 236 235 234 233 234 236 238 239 240 242 244 246 248 249 251 253 253 254 255
247 243 248 244 249 257 246 246 242 248 249 254 255 254 255 254 256 257 257 255 252 249 246 242 238 237 237 236 236 237 238 239 240 241 243 245 247 249 250 251 253 254 254 255
255 247 250 242 249 256 251 244 245 246 250 257 256 257 258 257 257 257 257 255 252 249 245 242 239 238 238 238 238 239 240 240 242 244 245 247 248 250 251 252 253 254 255 256
255 253 256 261 260 253 252 255 254 255 258 260 259 259 258 258 256 255 254 252 249 247 245 243 240 240 241 241 242 242 242 243 244 246 247 248 249 251 252 253 254 254 255 256
258 253 256 262 263 261 257 257 257 258 262 262 260 258 258 257 257 255 254 252 250 247 246 244 243 244 243 243 244 244 244 245 246 247 248 249 251 251 252 254 254 255 257 257
261 258 254 258 262 258 261 261 258 258 261 258 260 262 261 257 257 256 254 252 250 249 248 248 247 245 245 245 245 245 245 246 247 248 249 250 251 252 252 253 254 255 256 258